Terminal Aerodrome Forecast
Issued by NWS Boston, MA

Home | Current Version | Previous Version | Text Only | Print | Product List | Glossary On
Versions: 1 2 3 4 5 6 7 8 9 10 11 12 13 14 15 16 17 18 19 20 21 22 23 24 25 26 27 28 29 30 31 32 33 34 35 36 37 38 39 40 41
000
FTUS41 KBOX 212103 AAA
TAFBDL
TAF AMD
KBDL 212103Z 2121/2224 36004KT P6SM -SHSN BKN015
     FM220000 VRB03KT P6SM BKN020
     FM221200 VRB03KT P6SM BKN025
     FM221700 02005KT P6SM OVC015=

USA.gov is the U.S. government's official web portal to all federal, state and local government web resources and services.